User: anonymous   Login
Location: Stilling
(56.0622°N, 9.9882°E)
Time: 09:10:30
(UTC+00:00)
Language:

Cosmos 2278 Rocket - Orbit

View from above orbital plane
View from above orbital plane
View from above satellite
View from above satellite

Ground track
Ground track

The orbit data is extracted from the following two-line orbital elements,

1 23088U 94023B   20269.45364742 +.00000179 +00000-0 +11770-3 0  9999
2 23088 070.9971 291.2276 0001208 066.5548 293.5701 14.14689742364725
Epoch (UTC): 25 September 2020 10:53:15
Eccentricity: 0.0001208
inclination: 70.9971°
perigee height: 842 km
apogee height: 844 km
right ascension of ascending node: 291.2276°
argument of perigee: 66.5548°
revolutions per day: 14.14689742
mean anomaly at epoch: 293.5701°
orbit number at epoch: 36472

The dashed part of the orbit path shows where the satellite is in the earth's shadow,  

DLR